Simultaneous Nadir Overpasses (SNOs) Predictions

Prediction of SNOs between GOES-16 and AQUA Satellite Orbit:

Table of predicted SNOs for the next 14.0 days since TLE Epoch: 11/17/2017
Index Date Time (GOES-16) GOES-16 Lat,Lon AQUA Lat,Lon Distance(km) Time Diff (sec)
1 11/19/2017 07:33:52 0.01, -89.33 -0.03, -89.28 7.29 80
2 11/21/2017 07:19:01 0.01, -89.34 -0.64, -86.32 343.82 80
3 11/21/2017 19:40:24 -0.01, -89.36 -0.48, -91.50 244.66 80
4 11/23/2017 19:30:54 -0.01, -89.37 0.20, -88.56 93.17 80
5 11/24/2017 07:52:09 0.00, -89.37 0.95, -93.70 494.06 80
6 11/25/2017 19:18:43 -0.00, -89.39 0.82, -85.60 431.24 80
7 11/26/2017 07:39:59 0.00, -89.38 0.27, -90.76 155.94 80
8 11/28/2017 07:25:08 -0.00, -89.40 -0.35, -87.80 182.58 80
9 11/28/2017 19:46:32 0.00, -89.42 -0.74, -92.99 405.83 80
10 11/30/2017 19:34:21 0.00, -89.44 -0.10, -90.04 66.97 80




NCC Satellite Simultaneous Nadir Overpasses (SNOs) Prediction Service
